Farmingdale, NY

5:58 AM EDT on June 24, 2018 (GMT -0400)
Republic

Weather History for KFRG - September, 2017

Change the Weather History Date:

Thursday, September 7, 2017

  Actual Average Record
Temperature  
Mean Temperature 66 °F -  
Max Temperature 73 °F 76 °F 91 °F (1998)
Min Temperature 60 °F 61 °F 50 °F (2000)
Cooling Degree Days 1    
Growing Degree Days 16 (Base 50)    
Moisture  
Dew Point 57 °F    
Average Humidity 80    
Maximum Humidity 100    
Minimum Humidity 47    
Precipitation  
Precipitation 0.01 in - - ()
Sea Level Pressure  
Sea Level Pressure 29.87 in    
Wind  
Wind Speed 7 mph (West)    
Max Wind Speed 15 mph    
Max Gust Speed -    
Visibility 10 miles    
Events Rain    
Averages and records for this station are not official NWS values.
T = Trace of Precipitation, MM = Missing Value Source: NWS Daily Summary

Daily Weather History Graph

Daily Weather History Graph

Search for Another Location

Airport or City:

Astronomy

Sep. 07, 2017 Rise Set
Actual Time 6:26 AM EDT 7:15 PM EDT
Civil Twilight 5:58 AM EDT 7:43 PM EDT
Nautical Twilight 5:25 AM EDT 8:16 PM EDT
Astronomical Twilight 4:51 AM EDT 8:50 PM EDT
Moon 8:18 PM EDT (9/7) 7:40 AM EDT (9/7)
Length of Visible Light 13h 44m
Length of Day
12h 48m
Full, 98% of the Moon is Illuminated
Sep 7
Full
Sep 13
Last Quarter
Sep 20
New
Sep 27
First Quarter
Oct 5
Full

Hourly Weather History & Observations

Time (EDT) Temp. Dew Point Humidity Pressure Visibility Wind Dir Wind Speed Gust Speed Precip Events Conditions
12:08 AM 62.1 °F 60.1 °F 93% 29.85 in 8.0 mi North 6.9 mph - 0.00 in Rain Light Rain
12:33 AM 62.1 °F 61.0 °F 96% 29.87 in 6.0 mi Calm Calm - 0.01 in Rain Light Rain
12:53 AM 62.1 °F 60.1 °F 93% 29.86 in 9.0 mi NNE 4.6 mph - 0.01 in   Overcast
1:03 AM 62.1 °F 60.1 °F 93% 29.85 in 9.0 mi ENE 4.6 mph - N/A   Overcast
1:53 AM 61.0 °F 60.1 °F 97% 29.83 in 10.0 mi East 3.5 mph - N/A   Overcast
2:48 AM 60.8 °F 60.8 °F 100% 29.79 in 10.0 mi ESE 5.8 mph - N/A   Overcast
2:53 AM 61.0 °F 60.1 °F 97% 29.79 in 10.0 mi ESE 3.5 mph - N/A   Overcast
3:37 AM 61.0 °F 60.1 °F 97% 29.82 in 10.0 mi WNW 11.5 mph - N/A   Overcast
3:53 AM 61.0 °F 60.1 °F 97% 29.83 in 10.0 mi West 10.4 mph - N/A   Overcast
3:55 AM 61.0 °F 60.1 °F 97% 29.83 in 10.0 mi West 9.2 mph - N/A   Overcast
4:02 AM 61.0 °F 60.1 °F 97% 29.82 in 10.0 mi West 8.1 mph - N/A   Overcast
4:09 AM 61.0 °F 60.1 °F 97% 29.82 in 10.0 mi WNW 5.8 mph - N/A   Mostly Cloudy
4:16 AM 61.0 °F 60.1 °F 97% 29.82 in 10.0 mi WNW 6.9 mph - N/A   Mostly Cloudy
4:53 AM 61.0 °F 60.1 °F 97% 29.83 in 10.0 mi West 6.9 mph - N/A   Overcast
5:39 AM 62.1 °F 60.1 °F 93% 29.84 in 9.0 mi West 8.1 mph - N/A   Mostly Cloudy
5:53 AM 61.0 °F 60.1 °F 97% 29.84 in 9.0 mi West 8.1 mph - N/A   Mostly Cloudy
6:05 AM 62.1 °F 60.1 °F 93% 29.85 in 9.0 mi WNW 6.9 mph - N/A   Mostly Cloudy
6:12 AM 61.0 °F 59.0 °F 93% 29.85 in 9.0 mi WNW 9.2 mph - N/A   Mostly Cloudy
6:19 AM 61.0 °F 59.0 °F 93% 29.85 in 10.0 mi WNW 9.2 mph - N/A   Overcast
6:26 AM 61.0 °F 59.0 °F 93% 29.86 in 10.0 mi WNW 6.9 mph - N/A   Overcast
6:53 AM 60.1 °F 57.9 °F 93% 29.86 in 10.0 mi WNW 5.8 mph - N/A   Mostly Cloudy
7:53 AM 60.1 °F 57.0 °F 90% 29.87 in 10.0 mi West 5.8 mph - N/A   Clear
8:53 AM 62.1 °F 57.9 °F 86% 29.88 in 10.0 mi West 9.2 mph - N/A   Partly Cloudy
9:53 AM 64.0 °F 57.9 °F 80% 29.88 in 10.0 mi WSW 8.1 mph - N/A   Clear
10:53 AM 68.0 °F 57.0 °F 68% 29.89 in 10.0 mi West 8.1 mph - N/A   Clear
11:53 AM 70.0 °F 55.9 °F 61% 29.89 in 10.0 mi West 12.7 mph - N/A   Clear
12:53 PM 70.0 °F 55.0 °F 59% 29.89 in 10.0 mi WNW 8.1 mph - N/A   Mostly Cloudy
1:53 PM 71.1 °F 55.0 °F 57% 29.89 in 10.0 mi WSW 10.4 mph - N/A   Mostly Cloudy
2:53 PM 70.0 °F 55.0 °F 59% 29.88 in 10.0 mi WSW 9.2 mph - N/A   Scattered Clouds
3:53 PM 72.0 °F 57.0 °F 59% 29.88 in 10.0 mi WSW 10.4 mph - N/A   Partly Cloudy
4:53 PM 72.0 °F 55.0 °F 55% 29.88 in 10.0 mi WSW 15.0 mph - N/A   Mostly Cloudy
5:53 PM 71.1 °F 51.1 °F 49% 29.89 in 10.0 mi SW 13.8 mph - N/A   Scattered Clouds
6:53 PM 70.0 °F 48.9 °F 47% 29.91 in 10.0 mi WSW 10.4 mph - N/A   Partly Cloudy
7:53 PM 68.0 °F 46.9 °F 47% 29.94 in 10.0 mi West 11.5 mph - N/A   Clear
8:53 PM 66.0 °F 48.9 °F 54% 29.97 in 10.0 mi West 5.8 mph - N/A   Clear
9:53 PM 64.0 °F 48.9 °F 58% 29.99 in 10.0 mi West 6.9 mph - N/A   Clear
10:53 PM 63.0 °F 50.0 °F 63% 30.00 in 10.0 mi West 5.8 mph - N/A   Clear
11:53 PM 63.0 °F 48.9 °F 60% 30.02 in 10.0 mi West 8.1 mph - N/A   Clear